Time,TemperatureF,DewpointF,PressureIn,WindDirection,WindDirectionDegrees,WindSpeedMPH,WindSpeedGustMPH,Humidity,HourlyPrecipIn,Conditions,Clouds,dailyrainin,SolarRadiationWatts/m^2,SoftwareType,DateUTC
2013-09-04 00:01:00,64.0,61.6,30.34,North,350,1.2,0.0,92,0.00,BKN,SKC,0.00,0.0,WeatherDisplay:10.37,2013-09-03 22:01:00,
2013-09-04 00:06:00,64.0,61.3,30.34,North,350,3.5,3.5,91,0.00,BKN,SKC,0.00,0.0,WeatherDisplay:10.37,2013-09-03 22:06:00,
2013-09-04 00:11:00,63.9,61.2,30.34,North,350,2.3,2.3,91,0.00,BKN,SKC,0.00,0.0,WeatherDisplay:10.37,2013-09-03 22:11:00,
2013-09-04 00:16:00,63.9,61.2,30.34,North,350,3.5,3.5,91,0.00,BKN,SKC,0.00,0.0,WeatherDisplay:10.37,2013-09-03 22:16:00,
2013-09-04 00:21:00,63.8,61.1,30.34,North,350,3.5,3.5,91,0.00,BKN,SKC,0.00,0.0,WeatherDisplay:10.37,2013-09-03 22:21:00,
2013-09-04 00:26:00,63.8,61.1,30.34,North,350,2.3,2.3,91,0.00,BKN,SKC,0.00,0.0,WeatherDisplay:10.37,2013-09-03 22:26:00,
2013-09-04 00:31:00,63.8,61.4,30.34,North,350,3.5,3.5,92,0.00,BKN,SKC,0.00,0.0,WeatherDisplay:10.37,2013-09-03 22:31:00,
2013-09-04 00:36:00,63.7,61.3,30.34,North,350,3.5,3.5,92,0.00,BKN,SKC,0.00,0.0,WeatherDisplay:10.37,2013-09-03 22:36:00,
2013-09-04 00:41:00,63.7,61.3,30.34,North,350,4.0,4.0,92,0.00,BKN,SKC,0.00,0.0,WeatherDisplay:10.37,2013-09-03 22:41:00,
2013-09-04 00:46:00,63.7,61.3,30.34,North,350,2.3,2.3,92,0.00,BKN,SKC,0.00,0.0,WeatherDisplay:10.37,2013-09-03 22:46:00,
2013-09-04 00:51:00,63.6,61.2,30.34,North,350,1.2,1.2,92,0.00,BKN,SKC,0.00,0.0,WeatherDisplay:10.37,2013-09-03 22:51:00,
2013-09-04 00:56:00,63.5,61.1,30.34,North,350,2.3,0.0,92,0.00,BKN,SKC,0.00,0.0,WeatherDisplay:10.37,2013-09-03 22:56:00,
2013-09-04 01:01:00,63.5,61.1,30.34,North,350,1.2,0.0,92,0.00,BKN,SKC,0.00,0.0,WeatherDisplay:10.37,2013-09-03 23:01:00,
2013-09-04 01:06:00,63.5,61.1,30.34,North,350,0.0,0.0,92,0.00,BKN,SKC,0.00,0.0,WeatherDisplay:10.37,2013-09-03 23:06:00,
2013-09-04 01:11:00,63.4,61.0,30.34,North,350,3.5,3.5,92,0.00,BKN,SKC,0.00,0.0,WeatherDisplay:10.37,2013-09-03 23:11:00,
2013-09-04 01:16:00,63.3,61.2,30.34,North,350,3.5,3.5,93,0.00,BKN,SKC,0.00,0.0,WeatherDisplay:10.37,2013-09-03 23:16:00,
2013-09-04 01:21:00,63.3,61.2,30.34,North,350,3.5,3.5,93,0.00,BKN,SKC,0.00,0.0,WeatherDisplay:10.37,2013-09-03 23:21:00,
2013-09-04 01:26:00,63.2,61.1,30.33,North,350,2.3,2.3,93,0.00,BKN,SKC,0.00,0.0,WeatherDisplay:10.37,2013-09-03 23:26:00,
2013-09-04 01:31:00,63.2,61.1,30.33,North,350,3.5,3.5,93,0.00,BKN,SKC,0.00,0.0,WeatherDisplay:10.37,2013-09-03 23:31:00,
2013-09-04 01:36:00,63.2,61.1,30.33,North,350,4.0,4.0,93,0.00,BKN,SKC,0.00,0.0,WeatherDisplay:10.37,2013-09-03 23:36:00,
2013-09-04 01:41:00,63.2,61.1,30.33,North,350,5.0,5.0,93,0.00,BKN,SKC,0.00,0.0,WeatherDisplay:10.37,2013-09-03 23:41:00,
2013-09-04 01:46:00,63.2,61.1,30.33,North,350,4.0,4.0,93,0.00,BKN,SKC,0.00,0.0,WeatherDisplay:10.37,2013-09-03 23:46:00,
2013-09-04 01:51:00,63.1,61.0,30.33,North,350,4.0,4.0,93,0.00,BKN,SKC,0.00,0.0,WeatherDisplay:10.37,2013-09-03 23:51:00,
2013-09-04 01:56:00,63.2,61.1,30.33,North,350,3.5,3.5,93,0.00,BKN,SKC,0.00,0.0,WeatherDisplay:10.37,2013-09-03 23:56:00,
2013-09-04 02:01:00,63.2,61.1,30.33,North,350,3.5,3.5,93,0.00,BKN,SKC,0.00,0.0,WeatherDisplay:10.37,2013-09-04 00:01:00,
2013-09-04 02:06:00,63.2,61.1,30.33,North,350,3.5,3.5,93,0.00,BKN,SKC,0.00,0.0,WeatherDisplay:10.37,2013-09-04 00:06:00,
2013-09-04 02:11:00,63.3,61.5,30.33,North,350,2.3,2.3,94,0.00,BKN,SKC,0.00,0.0,WeatherDisplay:10.37,2013-09-04 00:11:00,
2013-09-04 02:16:00,63.4,61.3,30.33,North,350,3.0,3.0,93,0.00,BKN,SKC,0.00,0.0,WeatherDisplay:10.37,2013-09-04 00:16:00,
2013-09-04 02:21:00,63.4,61.3,30.33,North,350,3.5,3.5,93,0.00,BKN,SKC,0.00,0.0,WeatherDisplay:10.37,2013-09-04 00:21:00,
2013-09-04 02:26:00,63.4,61.3,30.33,North,350,1.2,1.2,93,0.00,BKN,SKC,0.00,0.0,WeatherDisplay:10.37,2013-09-04 00:26:00,
2013-09-04 02:31:00,63.4,61.3,30.32,North,350,3.5,3.5,93,0.00,BKN,SKC,0.00,0.0,WeatherDisplay:10.37,2013-09-04 00:31:00,
2013-09-04 02:36:00,63.4,61.3,30.32,North,350,3.5,3.5,93,0.00,BKN,SKC,0.00,0.0,WeatherDisplay:10.37,2013-09-04 00:36:00,
2013-09-04 02:41:00,63.4,61.3,30.32,North,350,3.5,3.5,93,0.00,BKN,SKC,0.00,0.0,WeatherDisplay:10.37,2013-09-04 00:41:00,
2013-09-04 02:46:00,63.4,61.3,30.33,North,350,3.5,3.5,93,0.00,BKN,SKC,0.00,0.0,WeatherDisplay:10.37,2013-09-04 00:46:00,
2013-09-04 02:51:00,63.5,61.4,30.33,North,350,2.3,2.3,93,0.00,BKN,SKC,0.00,0.0,WeatherDisplay:10.37,2013-09-04 00:51:00,
2013-09-04 02:56:00,63.5,61.4,30.32,North,350,2.3,2.3,93,0.00,BKN,SKC,0.00,0.0,WeatherDisplay:10.37,2013-09-04 00:56:00,
2013-09-04 03:01:00,63.5,61.4,30.32,North,350,3.5,3.5,93,0.00,BKN,SKC,0.00,0.0,WeatherDisplay:10.37,2013-09-04 01:01:00,
2013-09-04 03:06:00,63.5,61.4,30.32,North,350,3.5,3.5,93,0.00,BKN,SKC,0.00,0.0,WeatherDisplay:10.37,2013-09-04 01:06:00,
2013-09-04 03:11:00,63.5,61.4,30.32,North,350,3.5,3.5,93,0.00,BKN,SKC,0.00,0.0,WeatherDisplay:10.37,2013-09-04 01:11:00,
2013-09-04 03:16:00,63.4,61.3,30.32,North,350,3.5,3.5,93,0.00,BKN,SKC,0.00,0.0,WeatherDisplay:10.37,2013-09-04 01:16:00,
2013-09-04 03:21:00,63.4,61.3,30.32,North,350,3.5,3.5,93,0.00,BKN,SKC,0.00,0.0,WeatherDisplay:10.37,2013-09-04 01:21:00,
2013-09-04 03:26:00,63.4,61.3,30.32,North,350,2.3,2.3,93,0.00,BKN,SKC,0.00,0.0,WeatherDisplay:10.37,2013-09-04 01:26:00,
2013-09-04 03:31:00,63.3,61.2,30.32,North,350,2.3,2.3,93,0.00,BKN,SKC,0.00,0.0,WeatherDisplay:10.37,2013-09-04 01:31:00,
2013-09-04 03:36:00,63.3,61.2,30.32,North,350,3.5,3.5,93,0.00,BKN,SKC,0.00,0.0,WeatherDisplay:10.37,2013-09-04 01:36:00,
2013-09-04 03:41:00,63.2,61.1,30.32,North,350,2.0,2.0,93,0.00,BKN,SKC,0.00,0.0,WeatherDisplay:10.37,2013-09-04 01:41:00,
2013-09-04 03:46:00,63.2,61.1,30.32,North,350,3.5,3.5,93,0.00,BKN,SKC,0.00,0.0,WeatherDisplay:10.37,2013-09-04 01:46:00,
2013-09-04 03:51:00,63.2,61.1,30.32,North,350,2.3,2.3,93,0.00,BKN,SKC,0.00,0.0,WeatherDisplay:10.37,2013-09-04 01:51:00,
2013-09-04 03:56:00,63.1,61.0,30.32,North,350,1.2,1.2,93,0.00,BKN,SKC,0.00,0.0,WeatherDisplay:10.37,2013-09-04 01:56:00,
2013-09-04 04:01:00,63.1,61.0,30.31,North,350,2.3,2.3,93,0.00,BKN,SKC,0.00,0.0,WeatherDisplay:10.37,2013-09-04 02:01:00,
2013-09-04 04:06:00,63.0,60.9,30.31,North,350,0.0,0.1,93,0.00,BKN,SKC,0.00,0.0,WeatherDisplay:10.37,2013-09-04 02:06:00,
2013-09-04 04:11:00,62.9,60.8,30.31,North,350,1.2,1.2,93,0.00,BKN,SKC,0.00,0.0,WeatherDisplay:10.37,2013-09-04 02:11:00,
2013-09-04 04:16:00,62.9,60.8,30.31,North,350,2.3,2.3,93,0.00,BKN,SKC,0.00,0.0,WeatherDisplay:10.37,2013-09-04 02:16:00,
2013-09-04 04:21:00,62.8,60.7,30.31,North,350,3.5,3.5,93,0.00,BKN,SKC,0.00,0.0,WeatherDisplay:10.37,2013-09-04 02:21:00,
2013-09-04 04:26:00,62.8,60.7,30.31,North,350,3.5,3.5,93,0.00,BKN,SKC,0.00,0.0,WeatherDisplay:10.37,2013-09-04 02:26:00,
2013-09-04 04:31:00,62.7,60.6,30.31,North,350,1.2,0.0,93,0.00,BKN,SKC,0.00,0.0,WeatherDisplay:10.37,2013-09-04 02:31:00,
2013-09-04 04:36:00,62.7,60.6,30.31,North,350,0.0,0.0,93,0.00,BKN,SKC,0.00,0.0,WeatherDisplay:10.37,2013-09-04 02:36:00,
2013-09-04 04:41:00,62.6,60.8,30.31,North,350,0.0,0.0,94,0.00,BKN,SKC,0.00,0.0,WeatherDisplay:10.37,2013-09-04 02:41:00,
2013-09-04 04:46:00,62.6,60.8,30.30,North,350,1.2,0.0,94,0.00,BKN,SKC,0.00,0.0,WeatherDisplay:10.37,2013-09-04 02:46:00,
2013-09-04 04:51:00,62.6,60.8,30.30,North,350,1.2,1.2,94,0.00,BKN,SKC,0.00,0.0,WeatherDisplay:10.37,2013-09-04 02:51:00,
2013-09-04 04:56:00,62.5,60.7,30.30,North,350,2.3,2.3,94,0.00,BKN,SKC,0.00,0.0,WeatherDisplay:10.37,2013-09-04 02:56:00,
2013-09-04 05:01:00,62.5,60.7,30.30,North,350,2.3,2.3,94,0.00,BKN,SKC,0.00,0.0,WeatherDisplay:10.37,2013-09-04 03:01:00,
2013-09-04 05:06:00,62.5,60.7,30.30,North,350,1.2,0.0,94,0.00,BKN,SKC,0.00,0.0,WeatherDisplay:10.37,2013-09-04 03:06:00,
2013-09-04 05:11:00,62.4,60.7,30.30,North,350,1.2,1.2,94,0.00,BKN,SKC,0.00,0.0,WeatherDisplay:10.37,2013-09-04 03:11:00,
2013-09-04 05:16:00,62.4,60.7,30.30,North,350,1.2,0.0,94,0.00,BKN,SKC,0.00,0.0,WeatherDisplay:10.37,2013-09-04 03:16:00,
2013-09-04 05:21:00,62.4,60.7,30.29,North,350,0.0,0.0,94,0.00,BKN,SKC,0.00,0.0,WeatherDisplay:10.37,2013-09-04 03:21:00,
2013-09-04 05:26:00,62.3,60.6,30.29,North,350,1.0,0.0,94,0.00,BKN,SKC,0.00,0.0,WeatherDisplay:10.37,2013-09-04 03:26:00,
2013-09-04 05:31:00,62.3,60.6,30.29,North,350,1.2,0.0,94,0.00,BKN,SKC,0.00,0.0,WeatherDisplay:10.37,2013-09-04 03:31:00,
2013-09-04 05:36:00,62.2,60.5,30.29,North,350,0.0,0.0,94,0.00,BKN,SKC,0.00,0.0,WeatherDisplay:10.37,2013-09-04 03:36:00,
2013-09-04 05:41:00,62.2,60.5,30.29,North,350,1.2,1.2,94,0.00,BKN,SKC,0.00,0.0,WeatherDisplay:10.37,2013-09-04 03:41:00,
2013-09-04 05:46:00,62.1,60.4,30.29,North,350,0.0,0.0,94,0.00,BKN,SKC,0.00,0.0,WeatherDisplay:10.37,2013-09-04 03:46:00,
2013-09-04 05:51:00,62.1,60.4,30.29,North,350,0.0,0.0,94,0.00,BKN,SKC,0.00,0.0,WeatherDisplay:10.37,2013-09-04 03:51:00,
2013-09-04 05:56:00,62.0,60.3,30.29,North,350,0.0,0.0,94,0.00,BKN,SKC,0.00,0.0,WeatherDisplay:10.37,2013-09-04 03:56:00,
2013-09-04 06:01:00,62.0,60.3,30.29,North,350,0.0,0.0,94,0.00,BKN,SKC,0.00,0.0,WeatherDisplay:10.37,2013-09-04 04:01:00,
2013-09-04 06:02:00,62.0,60.3,30.29,North,350,0.0,0.0,94,0.00,BKN,SKC,0.00,0.0,WeatherDisplay:10.37,2013-09-04 04:02:00,
2013-09-04 06:06:00,62.0,60.3,30.29,North,350,0.0,0.0,94,0.00,BKN,SKC,0.00,0.0,WeatherDisplay:10.37,2013-09-04 04:06:00,
2013-09-04 06:08:00,62.0,60.3,30.29,North,350,0.0,0.1,94,0.00,BKN,SKC,0.00,0.0,WeatherDisplay:10.37,2013-09-04 04:08:00,
2013-09-04 06:13:00,62.0,60.3,30.28,North,350,2.3,2.3,94,0.00,BKN,SKC,0.00,0.0,WeatherDisplay:10.37,2013-09-04 04:13:00,
2013-09-04 06:14:00,62.0,60.3,30.29,North,350,2.3,2.3,94,0.00,BKN,SKC,0.00,0.0,WeatherDisplay:10.37,2013-09-04 04:14:00,
2013-09-04 06:19:00,62.0,60.3,30.28,North,350,2.3,2.3,94,0.00,BKN,SKC,0.00,0.0,WeatherDisplay:10.37,2013-09-04 04:19:00,
2013-09-04 06:23:00,62.0,60.3,30.29,North,350,2.3,2.3,94,0.00,BKN,SKC,0.00,0.0,WeatherDisplay:10.37,2013-09-04 04:23:00,
2013-09-04 06:28:00,61.9,60.5,30.28,North,350,2.3,2.3,95,0.00,BKN,SKC,0.00,0.0,WeatherDisplay:10.37,2013-09-04 04:28:00,
2013-09-04 06:33:00,61.8,60.4,30.29,North,350,2.3,2.3,95,0.00,BKN,SKC,0.00,0.0,WeatherDisplay:10.37,2013-09-04 04:33:00,
2013-09-04 06:38:00,61.8,60.4,30.28,North,350,2.3,2.3,95,0.00,BKN,SKC,0.00,0.0,WeatherDisplay:10.37,2013-09-04 04:38:00,
2013-09-04 06:43:00,61.8,60.4,30.29,North,350,1.2,0.0,95,0.00,BKN,SKC,0.00,0.0,WeatherDisplay:10.37,2013-09-04 04:43:00,
2013-09-04 06:48:00,61.8,60.4,30.29,North,350,2.3,2.3,95,0.00,BKN,SKC,0.00,0.0,WeatherDisplay:10.37,2013-09-04 04:48:00,
2013-09-04 06:53:00,61.7,60.3,30.29,North,350,1.2,0.0,95,0.00,BKN,SKC,0.00,0.0,WeatherDisplay:10.37,2013-09-04 04:53:00,
2013-09-04 06:58:00,61.7,60.3,30.29,North,350,0.0,0.0,95,0.00,BKN,SKC,0.00,0.0,WeatherDisplay:10.37,2013-09-04 04:58:00,
2013-09-04 07:03:00,61.7,60.3,30.29,North,350,0.0,0.0,95,0.00,BKN,SKC,0.00,0.0,WeatherDisplay:10.37,2013-09-04 05:03:00,
2013-09-04 07:08:00,61.6,60.2,30.29,North,350,0.0,0.0,95,0.00,BKN,SKC,0.00,5.0,WeatherDisplay:10.37,2013-09-04 05:08:00,
2013-09-04 07:13:00,61.7,60.3,30.29,North,350,1.2,1.2,95,0.00,BKN,SKC,0.00,7.1,WeatherDisplay:10.37,2013-09-04 05:13:00,
2013-09-04 07:18:00,61.6,60.2,30.29,North,350,2.3,2.3,95,0.00,BKN,SKC,0.00,9.1,WeatherDisplay:10.37,2013-09-04 05:18:00,
2013-09-04 07:23:00,61.6,60.2,30.29,North,350,1.2,1.2,95,0.00,BKN,SKC,0.00,16.2,WeatherDisplay:10.37,2013-09-04 05:23:00,
2013-09-04 07:28:00,61.5,60.1,30.29,North,350,0.0,0.0,95,0.00,BKN,SKC,0.00,23.2,WeatherDisplay:10.37,2013-09-04 05:28:00,
2013-09-04 07:33:00,61.6,60.2,30.29,North,350,0.0,0.0,95,0.00,BKN,SKC,0.00,30.3,WeatherDisplay:10.37,2013-09-04 05:33:00,
2013-09-04 07:38:00,61.5,60.1,30.29,North,350,0.0,0.0,95,0.00,BKN,SKC,0.00,39.4,WeatherDisplay:10.37,2013-09-04 05:38:00,
2013-09-04 07:43:00,61.5,60.1,30.29,North,350,1.2,1.2,95,0.00,BKN,SKC,0.00,46.5,WeatherDisplay:10.37,2013-09-04 05:43:00,
2013-09-04 07:48:00,61.4,60.0,30.29,North,350,2.3,2.3,95,0.00,BKN,SKC,0.00,51.5,WeatherDisplay:10.37,2013-09-04 05:48:00,
2013-09-04 07:53:00,61.4,60.0,30.29,North,350,3.5,3.5,95,0.00,BKN,SKC,0.00,62.6,WeatherDisplay:10.37,2013-09-04 05:53:00,
2013-09-04 07:58:00,61.5,60.1,30.29,North,350,3.5,3.5,95,0.00,BKN,SKC,0.00,65.7,WeatherDisplay:10.37,2013-09-04 05:58:00,
2013-09-04 08:03:00,61.6,60.2,30.29,North,350,1.2,1.2,95,0.00,BKN,SKC,0.00,74.7,WeatherDisplay:10.37,2013-09-04 06:03:00,
2013-09-04 08:08:00,61.7,60.5,30.29,North,350,0.0,0.0,96,0.00,BKN,SKC,0.00,93.9,WeatherDisplay:10.37,2013-09-04 06:08:00,
2013-09-04 08:13:00,61.9,60.7,30.29,North,350,0.0,0.8,96,0.00,BKN,SKC,0.00,101.0,WeatherDisplay:10.37,2013-09-04 06:13:00,
2013-09-04 08:18:00,61.9,60.5,30.29,North,350,3.5,3.5,95,0.00,BKN,SKC,0.00,121.2,WeatherDisplay:10.37,2013-09-04 06:18:00,
2013-09-04 08:23:00,62.0,60.6,30.29,North,350,2.3,2.3,95,0.00,BKN,SKC,0.00,138.4,WeatherDisplay:10.37,2013-09-04 06:23:00,
2013-09-04 08:28:00,62.1,60.7,30.29,North,350,3.5,3.5,95,0.00,BKN,SKC,0.00,121.2,WeatherDisplay:10.37,2013-09-04 06:28:00,
2013-09-04 08:33:00,62.2,60.8,30.29,North,350,3.5,3.5,95,0.00,BKN,SKC,0.00,135.3,WeatherDisplay:10.37,2013-09-04 06:33:00,
2013-09-04 08:38:00,62.3,60.8,30.29,North,350,3.5,3.5,95,0.00,BKN,SKC,0.00,121.2,WeatherDisplay:10.37,2013-09-04 06:38:00,
2013-09-04 08:43:00,62.4,60.9,30.29,North,350,2.3,2.3,95,0.00,BKN,SKC,0.00,135.3,WeatherDisplay:10.37,2013-09-04 06:43:00,
2013-09-04 08:48:00,62.5,61.0,30.29,North,350,1.2,0.0,95,0.00,BKN,SKC,0.00,142.4,WeatherDisplay:10.37,2013-09-04 06:48:00,
2013-09-04 08:53:00,62.8,61.3,30.28,North,350,2.0,2.0,95,0.00,BKN,SKC,0.00,152.5,WeatherDisplay:10.37,2013-09-04 06:53:00,
2013-09-04 09:05:00,63.1,61.6,30.29,North,350,2.0,2.0,95,0.00,BKN,SKC,0.00,156.6,WeatherDisplay:10.37,2013-09-04 07:05:00,
2013-09-04 09:10:00,63.2,61.7,30.28,North,350,1.2,1.2,95,0.00,BKN,SKC,0.00,157.6,WeatherDisplay:10.37,2013-09-04 07:10:00,
2013-09-04 09:16:00,63.5,62.0,30.28,North,350,3.5,3.5,95,0.00,BKN,SKC,0.00,157.6,WeatherDisplay:10.37,2013-09-04 07:16:00,
2013-09-04 09:21:00,63.7,62.2,30.28,North,350,3.5,0.0,95,0.00,BKN,SKC,0.00,164.6,WeatherDisplay:10.37,2013-09-04 07:21:00,
2013-09-04 09:26:00,64.0,62.5,30.28,North,350,3.5,3.5,95,0.00,BKN,SKC,0.00,163.6,WeatherDisplay:10.37,2013-09-04 07:26:00,
2013-09-04 09:31:00,64.3,62.8,30.28,North,350,0.0,0.0,95,0.00,BKN,SKC,0.00,150.5,WeatherDisplay:10.37,2013-09-04 07:31:00,
2013-09-04 09:36:00,64.7,63.2,30.29,North,350,0.0,0.2,95,0.00,BKN,SKC,0.00,152.5,WeatherDisplay:10.37,2013-09-04 07:36:00,
2013-09-04 09:41:00,65.0,63.2,30.29,North,350,0.0,0.0,94,0.00,BKN,SKC,0.00,152.5,WeatherDisplay:10.37,2013-09-04 07:41:00,
2013-09-04 09:46:00,65.2,63.4,30.28,North,350,0.0,0.0,94,0.00,BKN,SKC,0.00,164.6,WeatherDisplay:10.37,2013-09-04 07:46:00,
2013-09-04 09:57:00,66.0,63.9,30.29,North,350,1.2,0.0,93,0.00,BKN,SKC,0.00,294.9,WeatherDisplay:10.37,2013-09-04 07:57:00,
2013-09-04 10:02:00,66.8,64.7,30.29,North,350,2.0,2.0,93,0.00,BKN,SKC,0.00,390.9,WeatherDisplay:10.37,2013-09-04 08:02:00,
2013-09-04 10:14:00,68.1,64.4,30.28,North,350,2.3,2.3,88,0.00,BKN,SKC,0.00,386.8,WeatherDisplay:10.37,2013-09-04 08:14:00,
2013-09-04 10:19:00,68.5,63.8,30.28,North,350,3.5,3.5,85,0.00,SCT,SKC,0.00,400.0,WeatherDisplay:10.37,2013-09-04 08:19:00,
2013-09-04 10:24:00,68.6,62.9,30.28,North,11,3.5,3.5,82,0.00,SCT,SKC,0.00,415.1,WeatherDisplay:10.37,2013-09-04 08:24:00,
2013-09-04 10:29:00,69.0,62.9,30.28,NNE,25,4.6,0.0,81,0.00,SCT,SKC,0.00,431.3,WeatherDisplay:10.37,2013-09-04 08:29:00,
2013-09-04 10:34:00,69.6,62.8,30.28,NNE,29,5.8,5.8,79,0.00,SCT,SKC,0.00,447.4,WeatherDisplay:10.37,2013-09-04 08:34:00,
2013-09-04 10:39:00,69.9,62.7,30.28,NNE,30,4.6,4.6,78,0.00,SCT,SKC,0.00,450.5,WeatherDisplay:10.37,2013-09-04 08:39:00,
2013-09-04 10:44:00,69.6,62.4,30.28,NE,43,5.8,5.8,78,0.00,SCT,SKC,0.00,447.4,WeatherDisplay:10.37,2013-09-04 08:44:00,
2013-09-04 10:49:00,69.8,62.6,30.28,NE,43,4.0,4.0,78,0.00,SCT,SKC,0.00,479.8,WeatherDisplay:10.37,2013-09-04 08:49:00,
2013-09-04 10:54:00,70.0,62.5,30.28,NE,51,6.9,6.9,77,0.00,SCT,SKC,0.00,486.8,WeatherDisplay:10.37,2013-09-04 08:54:00,
2013-09-04 10:59:00,70.2,62.3,30.28,ENE,76,8.1,8.1,76,0.00,SCT,SKC,0.00,489.9,WeatherDisplay:10.37,2013-09-04 08:59:00,
2013-09-04 11:04:00,70.4,62.5,30.28,ENE,61,8.1,8.1,76,0.00,SCT,SKC,0.00,496.9,WeatherDisplay:10.37,2013-09-04 09:04:00,
2013-09-04 11:09:00,70.8,62.9,30.28,ENE,74,8.1,8.1,76,0.00,SCT,SKC,0.00,522.2,WeatherDisplay:10.37,2013-09-04 09:09:00,
2013-09-04 11:14:00,70.8,62.5,30.28,ENE,59,4.6,4.6,75,0.00,SCT,SKC,0.00,517.1,WeatherDisplay:10.37,2013-09-04 09:14:00,
2013-09-04 11:19:00,70.7,62.8,30.28,ENE,76,3.5,3.5,76,0.00,SCT,SKC,0.00,529.2,WeatherDisplay:10.37,2013-09-04 09:19:00,
2013-09-04 11:24:00,71.0,62.7,30.27,East,84,8.1,8.1,75,0.00,SCT,SKC,0.00,538.3,WeatherDisplay:10.37,2013-09-04 09:24:00,
2013-09-04 11:29:00,71.0,62.7,30.27,ENE,69,5.0,5.0,75,0.00,SCT,SKC,0.00,496.9,WeatherDisplay:10.37,2013-09-04 09:29:00,
2013-09-04 11:34:00,71.3,62.6,30.27,ENE,59,8.1,8.1,74,0.00,SCT,SKC,0.00,531.3,WeatherDisplay:10.37,2013-09-04 09:34:00,
2013-09-04 11:39:00,71.6,62.1,30.27,ENE,78,9.2,9.2,72,0.00,SCT,SKC,0.00,548.4,WeatherDisplay:10.37,2013-09-04 09:39:00,
2013-09-04 11:44:00,71.5,62.4,30.27,ENE,64,6.9,6.9,73,0.00,FEW,SKC,0.00,585.8,WeatherDisplay:10.37,2013-09-04 09:44:00,
2013-09-04 11:49:00,72.0,62.5,30.27,SE,135,4.6,4.6,72,0.00,FEW,SKC,0.00,587.8,WeatherDisplay:10.37,2013-09-04 09:49:00,
2013-09-04 11:54:00,72.1,62.2,30.26,SE,135,10.4,10.4,71,0.00,FEW,SKC,0.00,580.8,WeatherDisplay:10.37,2013-09-04 09:54:00,
2013-09-04 11:59:00,71.9,62.4,30.26,ESE,103,9.2,9.2,72,0.00,BKN,SKC,0.00,166.7,WeatherDisplay:10.37,2013-09-04 09:59:00,
2013-09-04 12:04:00,71.9,62.0,30.26,East,92,10.4,10.4,71,0.00,BKN,SKC,0.00,607.0,WeatherDisplay:10.37,2013-09-04 10:04:00,
2013-09-04 12:09:00,72.1,62.2,30.26,ENE,71,8.1,8.1,71,0.00,FEW,SKC,0.00,630.2,WeatherDisplay:10.37,2013-09-04 10:09:00,
2013-09-04 12:14:00,72.1,62.2,30.26,ESE,110,10.4,10.4,71,0.00,FEW,SKC,0.00,683.8,WeatherDisplay:10.37,2013-09-04 10:14:00,
2013-09-04 12:19:00,72.2,62.3,30.26,ESE,115,12.7,12.7,71,0.00,FEW,SKC,0.00,681.8,WeatherDisplay:10.37,2013-09-04 10:19:00,
2013-09-04 12:24:00,72.4,62.5,30.26,East,92,9.2,9.2,71,0.00,FEW,SKC,0.00,193.9,WeatherDisplay:10.37,2013-09-04 10:24:00,
2013-09-04 12:29:00,72.4,62.5,30.26,East,101,10.4,10.4,71,0.00,BKN,SKC,0.00,670.6,WeatherDisplay:10.37,2013-09-04 10:29:00,
2013-09-04 12:34:00,72.5,62.6,30.26,East,97,11.5,11.5,71,0.00,FEW,SKC,0.00,609.0,WeatherDisplay:10.37,2013-09-04 10:34:00,
2013-09-04 12:39:00,72.6,62.7,30.26,ENE,65,10.4,10.4,71,0.00,FEW,SKC,0.00,688.8,WeatherDisplay:10.37,2013-09-04 10:39:00,
2013-09-04 12:44:00,72.7,62.3,30.26,ESE,108,10.4,10.4,70,0.00,FEW,SKC,0.00,685.8,WeatherDisplay:10.37,2013-09-04 10:44:00,
2013-09-04 12:49:00,72.7,62.3,30.25,ESE,107,12.7,12.7,70,0.00,FEW,SKC,0.00,717.1,WeatherDisplay:10.37,2013-09-04 10:49:00,
2013-09-04 12:54:00,72.5,62.6,30.25,East,92,11.5,11.5,71,0.00,FEW,SKC,0.00,747.4,WeatherDisplay:10.37,2013-09-04 10:54:00,
2013-09-04 12:59:00,73.0,63.0,30.25,SE,138,11.0,11.0,71,0.00,FEW,SKC,0.00,491.9,WeatherDisplay:10.37,2013-09-04 10:59:00,
2013-09-04 13:04:00,73.3,62.9,30.25,NE,37,11.5,11.5,70,0.00,FEW,SKC,0.00,707.0,WeatherDisplay:10.37,2013-09-04 11:04:00,
2013-09-04 13:09:00,73.4,62.6,30.25,ESE,121,11.5,11.5,69,0.00,FEW,SKC,0.00,667.6,WeatherDisplay:10.37,2013-09-04 11:09:00,
2013-09-04 13:14:00,73.6,62.8,30.25,East,90,9.2,9.2,69,0.00,FEW,SKC,0.00,599.9,WeatherDisplay:10.37,2013-09-04 11:14:00,
2013-09-04 13:19:00,73.3,62.5,30.25,ENE,61,11.5,11.5,69,0.00,BKN,SKC,0.00,719.1,WeatherDisplay:10.37,2013-09-04 11:19:00,
2013-09-04 13:24:00,73.3,62.5,30.25,ESE,105,11.5,11.5,69,0.00,SCT,SKC,0.00,216.1,WeatherDisplay:10.37,2013-09-04 11:24:00,
2013-09-04 13:29:00,73.0,62.6,30.24,ESE,109,6.9,6.9,70,0.00,BKN,SKC,0.00,712.0,WeatherDisplay:10.37,2013-09-04 11:29:00,
2013-09-04 13:34:00,73.4,62.6,30.24,East,86,8.1,8.1,69,0.00,FEW,SKC,0.00,648.4,WeatherDisplay:10.37,2013-09-04 11:34:00,
2013-09-04 13:39:00,73.3,62.5,30.24,ESE,120,10.4,10.4,69,0.00,BKN,SKC,0.00,196.9,WeatherDisplay:10.37,2013-09-04 11:39:00,
2013-09-04 13:44:00,73.5,63.1,30.23,East,80,6.9,6.9,70,0.00,BKN,SKC,0.00,719.1,WeatherDisplay:10.37,2013-09-04 11:44:00,
2013-09-04 13:49:00,74.0,62.8,30.23,ENE,68,10.4,10.4,68,0.00,FEW,SKC,0.00,670.6,WeatherDisplay:10.37,2013-09-04 11:49:00,
2013-09-04 13:54:00,73.9,62.7,30.23,ENE,76,8.1,8.1,68,0.00,FEW,SKC,0.00,656.5,WeatherDisplay:10.37,2013-09-04 11:54:00,
2013-09-04 13:59:00,73.7,62.1,30.23,ENE,70,11.5,11.5,67,0.00,FEW,SKC,0.00,637.3,WeatherDisplay:10.37,2013-09-04 11:59:00,
2013-09-04 14:04:00,73.8,62.6,30.23,SE,129,9.2,9.2,68,0.00,FEW,SKC,0.00,634.3,WeatherDisplay:10.37,2013-09-04 12:04:00,
2013-09-04 14:09:00,74.1,62.4,30.22,ESE,116,6.9,6.9,67,0.00,FEW,SKC,0.00,346.4,WeatherDisplay:10.37,2013-09-04 12:09:00,
2013-09-04 14:14:00,74.2,63.0,30.22,East,101,8.0,8.0,68,0.00,SCT,SKC,0.00,669.6,WeatherDisplay:10.37,2013-09-04 12:14:00,
2013-09-04 14:19:00,74.1,62.4,30.22,East,99,10.4,10.4,67,0.00,FEW,SKC,0.00,623.2,WeatherDisplay:10.37,2013-09-04 12:19:00,
2013-09-04 14:24:00,74.4,63.1,30.22,ESE,114,8.1,8.1,68,0.00,FEW,SKC,0.00,655.5,WeatherDisplay:10.37,2013-09-04 12:24:00,
2013-09-04 14:29:00,74.8,63.1,30.22,East,89,10.4,10.4,67,0.00,FEW,SKC,0.00,681.8,WeatherDisplay:10.37,2013-09-04 12:29:00,
2013-09-04 14:34:00,74.7,63.0,30.22,NE,50,10.4,10.4,67,0.00,FEW,SKC,0.00,688.8,WeatherDisplay:10.37,2013-09-04 12:34:00,
2013-09-04 14:39:00,75.4,63.7,30.22,ENE,63,8.1,8.1,67,0.00,FEW,SKC,0.00,658.5,WeatherDisplay:10.37,2013-09-04 12:39:00,
2013-09-04 14:44:00,75.9,63.7,30.22,NE,54,6.0,6.0,66,0.00,FEW,SKC,0.00,660.5,WeatherDisplay:10.37,2013-09-04 12:44:00,
2013-09-04 14:49:00,75.7,63.1,30.22,NE,40,9.2,9.2,65,0.00,FEW,SKC,0.00,611.0,WeatherDisplay:10.37,2013-09-04 12:49:00,
2013-09-04 14:54:00,75.2,62.6,30.21,ENE,60,9.2,9.2,65,0.00,BKN,SKC,0.00,216.1,WeatherDisplay:10.37,2013-09-04 12:54:00,
2013-09-04 14:59:00,75.0,62.9,30.21,East,92,10.4,10.4,66,0.00,BKN,SKC,0.00,592.9,WeatherDisplay:10.37,2013-09-04 12:59:00,
2013-09-04 15:04:00,75.2,63.5,30.21,ESE,113,3.5,3.5,67,0.00,FEW,SKC,0.00,602.0,WeatherDisplay:10.37,2013-09-04 13:04:00,
2013-09-04 15:09:00,75.8,63.2,30.21,NE,53,11.5,11.5,65,0.00,FEW,SKC,0.00,597.9,WeatherDisplay:10.37,2013-09-04 13:09:00,
2013-09-04 15:14:00,75.8,63.2,30.20,ESE,119,8.1,8.1,65,0.00,FEW,SKC,0.00,619.1,WeatherDisplay:10.37,2013-09-04 13:14:00,
2013-09-04 15:19:00,75.8,63.2,30.20,East,80,10.4,10.4,65,0.00,FEW,SKC,0.00,599.9,WeatherDisplay:10.37,2013-09-04 13:19:00,
2013-09-04 15:24:00,75.8,63.2,30.20,SE,130,6.9,6.9,65,0.00,FEW,SKC,0.00,589.8,WeatherDisplay:10.37,2013-09-04 13:24:00,
2013-09-04 15:29:00,75.9,62.8,30.20,SSE,157,8.1,8.1,64,0.00,FEW,SKC,0.00,578.7,WeatherDisplay:10.37,2013-09-04 13:29:00,
2013-09-04 15:34:00,76.2,63.6,30.20,SE,134,4.6,4.6,65,0.00,FEW,SKC,0.00,543.4,WeatherDisplay:10.37,2013-09-04 13:34:00,
2013-09-04 15:39:00,76.4,63.3,30.20,SE,124,4.0,4.0,64,0.00,FEW,SKC,0.00,553.5,WeatherDisplay:10.37,2013-09-04 13:39:00,
2013-09-04 15:44:00,76.9,63.3,30.20,South,173,3.5,3.5,63,0.00,FEW,SKC,0.00,604.0,WeatherDisplay:10.37,2013-09-04 13:44:00,
2013-09-04 15:49:00,77.1,63.1,30.19,ENE,69,9.2,9.2,62,0.00,FEW,SKC,0.00,580.8,WeatherDisplay:10.37,2013-09-04 13:49:00,
2013-09-04 15:54:00,77.0,63.4,30.19,ENE,75,6.9,6.9,63,0.00,FEW,SKC,0.00,564.6,WeatherDisplay:10.37,2013-09-04 13:54:00,
2013-09-04 15:59:00,76.9,63.3,30.19,ENE,76,7.0,7.0,63,0.00,FEW,SKC,0.00,568.6,WeatherDisplay:10.37,2013-09-04 13:59:00,
2013-09-04 16:04:00,76.3,63.2,30.19,ENE,78,3.5,3.5,64,0.00,BKN,SKC,0.00,229.3,WeatherDisplay:10.37,2013-09-04 14:04:00,
2013-09-04 16:09:00,76.2,63.6,30.19,East,79,9.2,9.2,65,0.00,SCT,SKC,0.00,487.8,WeatherDisplay:10.37,2013-09-04 14:09:00,
2013-09-04 16:14:00,76.4,63.8,30.19,ENE,58,7.0,7.0,65,0.00,FEW,SKC,0.00,493.9,WeatherDisplay:10.37,2013-09-04 14:14:00,
2013-09-04 16:19:00,76.5,63.4,30.19,ENE,61,6.9,6.9,64,0.00,FEW,SKC,0.00,356.5,WeatherDisplay:10.37,2013-09-04 14:19:00,
2013-09-04 16:24:00,76.5,63.4,30.18,ENE,66,10.4,10.4,64,0.00,SCT,SKC,0.00,218.2,WeatherDisplay:10.37,2013-09-04 14:24:00,
2013-09-04 16:29:00,76.5,63.9,30.18,SE,143,8.1,8.1,65,0.00,BKN,SKC,0.00,459.6,WeatherDisplay:10.37,2013-09-04 14:29:00,
2013-09-04 16:34:00,76.9,63.3,30.18,NNE,32,10.4,10.4,63,0.00,FEW,SKC,0.00,468.6,WeatherDisplay:10.37,2013-09-04 14:34:00,
2013-09-04 16:39:00,77.0,63.4,30.18,NNE,30,5.8,5.8,63,0.00,FEW,SKC,0.00,349.5,WeatherDisplay:10.37,2013-09-04 14:39:00,
2013-09-04 16:44:00,77.2,63.6,30.18,ENE,67,6.9,6.9,63,0.00,FEW,SKC,0.00,450.5,WeatherDisplay:10.37,2013-09-04 14:44:00,
2013-09-04 16:49:00,77.1,63.5,30.18,ENE,71,6.9,6.9,63,0.00,FEW,SKC,0.00,435.3,WeatherDisplay:10.37,2013-09-04 14:49:00,
2013-09-04 16:54:00,77.0,63.4,30.17,ENE,69,6.9,6.9,63,0.00,FEW,SKC,0.00,410.1,WeatherDisplay:10.37,2013-09-04 14:54:00,
2013-09-04 16:59:00,77.0,63.4,30.17,ENE,63,8.1,8.1,63,0.00,FEW,SKC,0.00,397.9,WeatherDisplay:10.37,2013-09-04 14:59:00,
2013-09-04 17:04:00,77.1,63.5,30.17,ENE,72,6.9,6.9,63,0.00,FEW,SKC,0.00,400.0,WeatherDisplay:10.37,2013-09-04 15:04:00,
2013-09-04 17:09:00,77.1,64.0,30.17,ESE,112,9.2,9.2,64,0.00,FEW,SKC,0.00,384.8,WeatherDisplay:10.37,2013-09-04 15:09:00,
2013-09-04 17:14:00,77.4,63.8,30.17,ESE,109,4.0,4.0,63,0.00,FEW,SKC,0.00,372.7,WeatherDisplay:10.37,2013-09-04 15:14:00,
2013-09-04 17:19:00,77.2,63.6,30.17,NE,51,10.4,10.4,63,0.00,FEW,SKC,0.00,348.4,WeatherDisplay:10.37,2013-09-04 15:19:00,
2013-09-04 17:24:00,77.2,63.2,30.16,NNE,19,10.4,10.4,62,0.00,FEW,SKC,0.00,344.4,WeatherDisplay:10.37,2013-09-04 15:24:00,
2013-09-04 17:29:00,77.6,63.5,30.16,NNE,25,9.2,9.2,62,0.00,FEW,SKC,0.00,319.2,WeatherDisplay:10.37,2013-09-04 15:29:00,
2013-09-04 17:34:00,77.8,63.3,30.16,ENE,69,10.4,10.4,61,0.00,SCT,SKC,0.00,321.2,WeatherDisplay:10.37,2013-09-04 15:34:00,
2013-09-04 17:39:00,77.5,63.5,30.16,ENE,71,3.5,3.5,62,0.00,SCT,SKC,0.00,302.0,WeatherDisplay:10.37,2013-09-04 15:39:00,
2013-09-04 17:44:00,77.4,63.4,30.16,East,88,11.5,11.5,62,0.00,FEW,SKC,0.00,292.9,WeatherDisplay:10.37,2013-09-04 15:44:00,
2013-09-04 17:49:00,77.4,63.4,30.16,ENE,74,6.9,6.9,62,0.00,FEW,SKC,0.00,278.8,WeatherDisplay:10.37,2013-09-04 15:49:00,
2013-09-04 17:54:00,77.6,63.5,30.16,East,95,6.9,6.9,62,0.00,SCT,SKC,0.00,259.6,WeatherDisplay:10.37,2013-09-04 15:54:00,
2013-09-04 17:59:00,77.5,63.5,30.16,ESE,111,4.6,4.6,62,0.00,SCT,SKC,0.00,236.3,WeatherDisplay:10.37,2013-09-04 15:59:00,
2013-09-04 18:04:00,77.5,63.5,30.16,East,96,5.0,5.0,62,0.00,SCT,SKC,0.00,232.3,WeatherDisplay:10.37,2013-09-04 16:04:00,
2013-09-04 18:09:00,77.5,63.5,30.16,East,87,7.0,7.0,62,0.00,SCT,SKC,0.00,215.1,WeatherDisplay:10.37,2013-09-04 16:09:00,
2013-09-04 18:14:00,77.3,63.3,30.16,ENE,57,9.2,9.2,62,0.00,SCT,SKC,0.00,215.1,WeatherDisplay:10.37,2013-09-04 16:14:00,
2013-09-04 18:19:00,77.1,63.1,30.16,East,92,10.4,10.4,62,0.00,SCT,SKC,0.00,211.1,WeatherDisplay:10.37,2013-09-04 16:19:00,
2013-09-04 18:24:00,77.1,63.1,30.15,ENE,71,7.0,7.0,62,0.00,SCT,SKC,0.00,177.8,WeatherDisplay:10.37,2013-09-04 16:24:00,
2013-09-04 18:29:00,77.2,63.2,30.15,ENE,72,6.9,6.9,62,0.00,BKN,SKC,0.00,172.7,WeatherDisplay:10.37,2013-09-04 16:29:00,
2013-09-04 18:34:00,77.1,63.5,30.15,East,81,10.4,10.4,63,0.00,SCT,SKC,0.00,161.6,WeatherDisplay:10.37,2013-09-04 16:34:00,
2013-09-04 18:39:00,77.1,63.5,30.15,ENE,61,9.2,9.2,63,0.00,SCT,SKC,0.00,152.5,WeatherDisplay:10.37,2013-09-04 16:39:00,
2013-09-04 18:44:00,77.0,64.3,30.14,NE,50,6.9,6.9,65,0.00,SCT,SKC,0.00,145.4,WeatherDisplay:10.37,2013-09-04 16:44:00,
2013-09-04 18:49:00,76.8,64.1,30.14,NE,53,6.9,6.9,65,0.00,BKN,SKC,0.00,126.3,WeatherDisplay:10.37,2013-09-04 16:49:00,
2013-09-04 18:54:00,76.6,64.4,30.14,ENE,59,8.1,8.1,66,0.00,BKN,SKC,0.00,115.1,WeatherDisplay:10.37,2013-09-04 16:54:00,
2013-09-04 18:59:00,76.5,64.3,30.14,NE,40,6.9,6.9,66,0.00,BKN,SKC,0.00,103.0,WeatherDisplay:10.37,2013-09-04 16:59:00,
2013-09-04 19:04:00,76.3,64.5,30.14,NE,52,8.1,8.1,67,0.00,BKN,SKC,0.00,93.9,WeatherDisplay:10.37,2013-09-04 17:04:00,
2013-09-04 19:09:00,76.0,64.7,30.14,NE,50,10.4,10.4,68,0.00,BKN,SKC,0.00,81.8,WeatherDisplay:10.37,2013-09-04 17:09:00,
2013-09-04 19:14:00,75.6,64.7,30.14,ENE,58,8.1,8.1,69,0.00,BKN,SKC,0.00,76.8,WeatherDisplay:10.37,2013-09-04 17:14:00,
2013-09-04 19:19:00,75.5,64.6,30.14,NE,55,4.6,4.6,69,0.00,BKN,SKC,0.00,65.7,WeatherDisplay:10.37,2013-09-04 17:19:00,
2013-09-04 19:24:00,75.4,64.5,30.14,NE,48,7.0,7.0,69,0.00,BKN,SKC,0.00,56.6,WeatherDisplay:10.37,2013-09-04 17:24:00,
2013-09-04 19:29:00,75.3,64.8,30.14,NE,40,6.0,6.0,70,0.00,BKN,SKC,0.00,49.5,WeatherDisplay:10.37,2013-09-04 17:29:00,
2013-09-04 19:34:00,75.1,64.6,30.14,NE,40,6.9,6.9,70,0.00,BKN,SKC,0.00,42.4,WeatherDisplay:10.37,2013-09-04 17:34:00,
2013-09-04 19:39:00,74.9,64.9,30.14,NE,36,5.0,5.0,71,0.00,BKN,SKC,0.00,35.4,WeatherDisplay:10.37,2013-09-04 17:39:00,
2013-09-04 19:44:00,74.5,64.5,30.14,NNE,32,8.1,8.1,71,0.00,BKN,SKC,0.00,30.3,WeatherDisplay:10.37,2013-09-04 17:44:00,
2013-09-04 19:49:00,74.1,64.5,30.14,NNE,32,4.6,4.6,72,0.00,BKN,SKC,0.00,25.3,WeatherDisplay:10.37,2013-09-04 17:49:00,
2013-09-04 19:54:00,73.9,64.3,30.14,NNE,30,6.9,6.9,72,0.00,BKN,SKC,0.00,21.2,WeatherDisplay:10.37,2013-09-04 17:54:00,
2013-09-04 19:59:00,73.7,64.5,30.14,NNE,32,5.8,5.8,73,0.00,BKN,SKC,0.00,18.2,WeatherDisplay:10.37,2013-09-04 17:59:00,
2013-09-04 20:04:00,73.4,64.2,30.14,NNE,32,6.9,6.9,73,0.00,BKN,SKC,0.00,12.1,WeatherDisplay:10.37,2013-09-04 18:04:00,
2013-09-04 20:09:00,73.2,64.0,30.14,NNE,33,4.6,4.6,73,0.00,BKN,SKC,0.00,9.1,WeatherDisplay:10.37,2013-09-04 18:09:00,
2013-09-04 20:14:00,73.0,64.2,30.14,NNE,33,7.0,7.0,74,0.00,BKN,SKC,0.00,7.1,WeatherDisplay:10.37,2013-09-04 18:14:00,
2013-09-04 20:19:00,72.8,64.0,30.14,NE,36,5.0,5.0,74,0.00,BKN,SKC,0.00,0.0,WeatherDisplay:10.37,2013-09-04 18:19:00,
2013-09-04 20:24:00,72.5,64.1,30.14,NE,36,5.8,5.8,75,0.00,BKN,SKC,0.00,0.0,WeatherDisplay:10.37,2013-09-04 18:24:00,
2013-09-04 20:29:00,72.3,63.9,30.14,NE,36,3.0,3.0,75,0.00,BKN,SKC,0.00,0.0,WeatherDisplay:10.37,2013-09-04 18:29:00,
2013-09-04 20:34:00,72.1,63.7,30.14,NE,36,4.6,4.6,75,0.00,BKN,SKC,0.00,0.0,WeatherDisplay:10.37,2013-09-04 18:34:00,
2013-09-04 20:39:00,71.9,63.5,30.14,NE,36,3.5,3.5,75,0.00,BKN,SKC,0.00,0.0,WeatherDisplay:10.37,2013-09-04 18:39:00,
2013-09-04 20:44:00,71.7,63.7,30.13,NE,36,4.0,4.0,76,0.00,BKN,SKC,0.00,0.0,WeatherDisplay:10.37,2013-09-04 18:44:00,
2013-09-04 20:49:00,71.5,63.5,30.13,NE,36,3.5,3.5,76,0.00,BKN,SKC,0.00,0.0,WeatherDisplay:10.37,2013-09-04 18:49:00,
2013-09-04 20:54:00,71.3,63.3,30.13,NE,36,4.6,4.6,76,0.00,BKN,SKC,0.00,0.0,WeatherDisplay:10.37,2013-09-04 18:54:00,
2013-09-04 20:59:00,71.1,63.5,30.13,NE,36,3.5,3.5,77,0.00,BKN,SKC,0.00,0.0,WeatherDisplay:10.37,2013-09-04 18:59:00,
2013-09-04 21:04:00,70.9,63.7,30.13,NE,36,3.0,3.0,78,0.00,BKN,SKC,0.00,0.0,WeatherDisplay:10.37,2013-09-04 19:04:00,
2013-09-04 21:09:00,70.8,63.6,30.13,NE,36,6.0,6.0,78,0.00,BKN,SKC,0.00,0.0,WeatherDisplay:10.37,2013-09-04 19:09:00,
2013-09-04 21:14:00,70.5,63.3,30.13,NE,36,5.8,5.8,78,0.00,BKN,SKC,0.00,0.0,WeatherDisplay:10.37,2013-09-04 19:14:00,
2013-09-04 21:19:00,70.4,63.6,30.13,NE,35,5.8,5.8,79,0.00,BKN,SKC,0.00,0.0,WeatherDisplay:10.37,2013-09-04 19:19:00,
2013-09-04 21:24:00,70.1,63.3,30.13,NE,35,5.8,5.8,79,0.00,BKN,SKC,0.00,0.0,WeatherDisplay:10.37,2013-09-04 19:24:00,
2013-09-04 21:29:00,69.9,63.4,30.13,NE,34,5.8,5.8,80,0.00,BKN,SKC,0.00,0.0,WeatherDisplay:10.37,2013-09-04 19:29:00,
2013-09-04 21:34:00,69.8,63.3,30.13,NE,34,3.5,3.5,80,0.00,BKN,SKC,0.00,0.0,WeatherDisplay:10.37,2013-09-04 19:34:00,
2013-09-04 21:39:00,69.7,63.6,30.13,NE,34,3.5,3.5,81,0.00,BKN,SKC,0.00,0.0,WeatherDisplay:10.37,2013-09-04 19:39:00,
2013-09-04 21:44:00,69.5,63.4,30.13,NE,34,4.6,4.6,81,0.00,BKN,SKC,0.00,0.0,WeatherDisplay:10.37,2013-09-04 19:44:00,
2013-09-04 21:49:00,69.4,63.3,30.12,NE,34,5.0,5.0,81,0.00,BKN,SKC,0.00,0.0,WeatherDisplay:10.37,2013-09-04 19:49:00,
2013-09-04 21:54:00,69.2,63.5,30.12,NE,34,2.3,2.3,82,0.00,BKN,SKC,0.00,0.0,WeatherDisplay:10.37,2013-09-04 19:54:00,
2013-09-04 21:59:00,69.1,63.4,30.12,NE,36,5.8,5.8,82,0.00,BKN,SKC,0.00,0.0,WeatherDisplay:10.37,2013-09-04 19:59:00,
2013-09-04 22:04:00,69.0,63.3,30.12,NE,37,4.6,4.6,82,0.00,BKN,SKC,0.00,0.0,WeatherDisplay:10.37,2013-09-04 20:04:00,
2013-09-04 22:09:00,68.9,63.2,30.12,NE,38,4.6,4.6,82,0.00,BKN,SKC,0.00,0.0,WeatherDisplay:10.37,2013-09-04 20:09:00,
2013-09-04 22:14:00,68.8,63.4,30.12,NE,38,7.0,7.0,83,0.00,BKN,SKC,0.00,0.0,WeatherDisplay:10.37,2013-09-04 20:14:00,
2013-09-04 22:19:00,68.7,63.3,30.12,NE,38,4.6,4.6,83,0.00,BKN,SKC,0.00,0.0,WeatherDisplay:10.37,2013-09-04 20:19:00,
2013-09-04 22:24:00,68.5,63.1,30.12,NE,38,3.5,3.5,83,0.00,BKN,SKC,0.00,0.0,WeatherDisplay:10.37,2013-09-04 20:24:00,
2013-09-04 22:29:00,68.4,63.0,30.12,NE,38,5.8,5.8,83,0.00,BKN,SKC,0.00,0.0,WeatherDisplay:10.37,2013-09-04 20:29:00,
2013-09-04 22:34:00,68.4,63.4,30.12,NE,38,5.8,5.8,84,0.00,BKN,SKC,0.00,0.0,WeatherDisplay:10.37,2013-09-04 20:34:00,
2013-09-04 22:39:00,68.3,63.3,30.12,NE,38,4.6,4.6,84,0.00,BKN,SKC,0.00,0.0,WeatherDisplay:10.37,2013-09-04 20:39:00,
2013-09-04 22:44:00,68.2,63.2,30.12,NE,38,6.0,6.0,84,0.00,BKN,SKC,0.00,0.0,WeatherDisplay:10.37,2013-09-04 20:44:00,
2013-09-04 22:49:00,68.1,63.1,30.12,NE,38,5.0,5.0,84,0.00,BKN,SKC,0.00,0.0,WeatherDisplay:10.37,2013-09-04 20:49:00,
2013-09-04 22:54:00,68.0,63.0,30.12,NE,38,5.8,5.8,84,0.00,BKN,SKC,0.00,0.0,WeatherDisplay:10.37,2013-09-04 20:54:00,
2013-09-04 22:59:00,67.9,62.9,30.12,NE,38,4.6,4.6,84,0.00,BKN,SKC,0.00,0.0,WeatherDisplay:10.37,2013-09-04 20:59:00,
2013-09-04 23:04:00,67.8,62.8,30.11,NE,39,5.8,5.8,84,0.00,BKN,SKC,0.00,0.0,WeatherDisplay:10.37,2013-09-04 21:04:00,
2013-09-04 23:09:00,67.7,63.0,30.11,NE,39,4.6,4.6,85,0.00,BKN,SKC,0.00,0.0,WeatherDisplay:10.37,2013-09-04 21:09:00,
2013-09-04 23:14:00,67.6,62.9,30.11,NE,39,6.9,6.9,85,0.00,BKN,SKC,0.00,0.0,WeatherDisplay:10.37,2013-09-04 21:14:00,
2013-09-04 23:19:00,67.6,62.9,30.11,NE,40,4.6,4.6,85,0.00,BKN,SKC,0.00,0.0,WeatherDisplay:10.37,2013-09-04 21:19:00,
2013-09-04 23:24:00,67.5,62.8,30.11,NE,40,4.0,4.0,85,0.00,BKN,SKC,0.00,0.0,WeatherDisplay:10.37,2013-09-04 21:24:00,
2013-09-04 23:29:00,67.4,62.7,30.11,NE,40,3.5,3.5,85,0.00,BKN,SKC,0.00,0.0,WeatherDisplay:10.37,2013-09-04 21:29:00,
2013-09-04 23:34:00,67.3,62.6,30.11,NE,40,4.0,4.0,85,0.00,BKN,SKC,0.00,0.0,WeatherDisplay:10.37,2013-09-04 21:34:00,
2013-09-04 23:39:00,67.2,62.5,30.11,NE,40,3.5,3.5,85,0.00,BKN,SKC,0.00,0.0,WeatherDisplay:10.37,2013-09-04 21:39:00,
2013-09-04 23:44:00,67.1,62.4,30.11,NE,40,3.5,3.5,85,0.00,BKN,SKC,0.00,0.0,WeatherDisplay:10.37,2013-09-04 21:44:00,
2013-09-04 23:49:00,66.9,62.6,30.11,NE,40,3.5,3.5,86,0.00,BKN,SKC,0.00,0.0,WeatherDisplay:10.37,2013-09-04 21:49:00,
2013-09-04 23:54:00,66.8,62.5,30.11,NE,40,3.5,3.5,86,0.00,BKN,SKC,0.00,0.0,WeatherDisplay:10.37,2013-09-04 21:54:00,
2013-09-04 23:59:00,66.7,62.4,30.11,NE,40,3.5,3.5,86,0.00,BKN,SKC,0.00,0.0,WeatherDisplay:10.37,2013-09-04 21:59:00,